User: anonymous   Login
Location: Saratoga Springs
(43.0831°N, 73.7850°W)
Time: 22:30:05
(UTC-04:00)
Language:

Courier 1B Rocket - Orbit

View from above orbital plane
View from above orbital plane
View from above satellite
View from above satellite

Ground track
Ground track

The orbit data is extracted from the following two-line orbital elements,

1 00059U 60013B   24112.54642548  .00000238  00000-0  19453-3 0  9990
2 00059  28.2480 205.3461 0188887 191.6958 167.9155 13.53066674136544
Epoch (UTC): 21 April 2024 13:06:51
Eccentricity: 0.0188887
inclination: 28.2480°
perigee height: 920 km
apogee height: 1201 km
right ascension of ascending node: 205.3461°
argument of perigee: 191.6958°
revolutions per day: 13.53066674
mean anomaly at epoch: 167.9155°
orbit number at epoch: 13654

The dashed part of the orbit path shows where the satellite is in the earth's shadow,  

DLR